Regional Weather Roundup
Issued by NWS

Home | Current Version | Previous Version | Graphics & Text | Print | Product List | Glossary Off
Versions: 1 2 3 4 5 6 7 8 9 10 11 12 13 14 15 16 17 18 19 20 21 22 23 24 25 26 27 28 29 30 31 32 33 34 35 36 37 38 39 40 41 42 43 44 45 46 47 48 49 50

000
ASUS43 KTOP 292359
RWRKS

WEATHER ROUNDUP FOR KANSAS
NATIONAL WEATHER SERVICE GOODLAND KS
700 PM CDT WED JUL 29 2015

NOTE:  "FAIR" INDICATES FEW OR NO CLOUDS BELOW 12,000 FEET WITH NO
SIGNIFICANT WEATHER AND/OR OBSTRUCTIONS TO VISIBILITY.

KSZ001>006-013>018-027>032-041>047-300100-
NORTHWEST KANSAS

CITY           SKY/WX    TMP DP  RH WIND       PRES   REMARKS
GOODLAND       SUNNY     79  45  29 SE13      30.24F
6HR MIN TEMP:  76; 6HR MAX TEMP:  82;

HAYS           PTSUNNY   81  50  34 E16       30.18F
HILL CITY      SUNNY     83  52  34 E12       30.19F
6HR MIN TEMP:  78; 6HR MAX TEMP:  85;

RUSSELL        PTSUNNY   82  56  40 E17       30.16F
6HR MIN TEMP:  75; 6HR MAX TEMP:  84;

$$

KSZ061>065-074>080-084>089-300100-
SOUTHWEST KANSAS

CITY           SKY/WX    TMP DP  RH WIND       PRES   REMARKS
DODGE CITY     MOSUNNY   78  64  61 NE10      30.18S
6HR MIN TEMP:  77; 6HR MAX TEMP:  83;

ELKHART          N/A     81  64  56 E9          N/A
GARDEN CITY    PTSUNNY   77  64  64 E9        30.19F
6HR MIN TEMP:  74; 6HR MAX TEMP:  80;

GREAT BEND     PTSUNNY   81  64  57 NE9       30.15F
LIBERAL        SUNNY     82  64  54 NE16      30.16S
$$

KSZ066>073-081>083-090>101-300100-
SOUTHEAST KANSAS

CITY           SKY/WX    TMP DP  RH WIND       PRES   REMARKS
CHANUTE        PTSUNNY   84  69  60 N9        30.11R
6HR MIN TEMP:  84; 6HR MAX TEMP:  93;

COFFEYVILLE    SUNNY     87  73  62 NE10      30.06R
6HR MIN TEMP:  87; 6HR MAX TEMP:  97;

HUTCHINSON     PTSUNNY   82  68  62 NE13      30.13F
6HR MIN TEMP:  76; 6HR MAX TEMP:  82; 6HR PCP: TRACE;

MEDICINE LODGE   N/A     75  70  84 N17       30.10F
PARSONS        CLOUDY    87  72  60 VRB7      30.10R
6HR MIN TEMP:  87; 6HR MAX TEMP:  95;

WICHITA INTL   CLOUDY    77  72  84 NE10      30.11F
6HR MIN TEMP:  76; 6HR MAX TEMP:  84; 6HR PCP:  0.02;

WICHITA JABRA  CLOUDY    78  69  73 NE10      30.11F
6HR MIN TEMP:  75; 6HR MAX TEMP:  82; 6HR PCP:  0.03;

WINFIELD       PTSUNNY   72  68  87 E7        30.10F
6HR MIN TEMP:  71; 6HR MAX TEMP:  95; 6HR PCP:  1.81;

$$

KSZ007>012-019>026-033>040-048>060-102>105-300100-
NORTHEAST KANSAS

CITY           SKY/WX    TMP DP  RH WIND       PRES   REMARKS
CONCORDIA      MOSUNNY   81  60  48 E7        30.17F
6HR MIN TEMP:  76; 6HR MAX TEMP:  83;

EMPORIA        MOSUNNY   81  70  69 NE8       30.14S
6HR MIN TEMP:  76; 6HR MAX TEMP:  84;

LAWRENCE       MOSUNNY   83  68  60 N7        30.13F
6HR MIN TEMP:  81; 6HR MAX TEMP:  86;

MANHATTAN      SUNNY     80  67  64 NE8       30.14F
6HR MIN TEMP:  78; 6HR MAX TEMP:  84;

OLATHE IND     PTSUNNY   81  65  58 N12       30.14S
6HR MIN TEMP:  80; 6HR MAX TEMP:  86;

OLATHE EXE     PTSUNNY   83  63  50 N8        30.13S
6HR MIN TEMP:  81; 6HR MAX TEMP:  86;

SALINA         PTSUNNY   84  69  60 NE9       30.14F
6HR MIN TEMP:  76; 6HR MAX TEMP:  84;

TOPEKA BILLARD MOSUNNY   83  68  60 NE7       30.14F
6HR MIN TEMP:  80; 6HR MAX TEMP:  85;

TOPEKA FORBES  MOSUNNY   84  67  56 NE6       30.15S
6HR MIN TEMP:  81; 6HR MAX TEMP:  86;

$$



USA.gov is the U.S. government's official web portal to all federal, state and local government web resources and services.